TimeMST,TemperatureF,Dew PointF,Humidity,Sea Level PressureIn,VisibilityMPH,Wind Direction,Wind SpeedMPH,Gust SpeedMPH,PrecipitationIn,Events,Conditions,WindDirDegrees,DateUTC
12:20 AM,37.4,28.4,70,29.90,10.0,East,8.1,-,N/A,,Clear,90,2013-03-08 07:20:00
12:50 AM,39.2,30.2,70,29.90,10.0,East,9.2,-,N/A,,Partly Cloudy,90,2013-03-08 07:50:00
12:58 AM,39.4,30.6,71,29.88,10.0,ESE,5.8,-,0.00,,Partly Cloudy,110,2013-03-08 07:58:00
1:58 AM,39.2,30.6,71,29.85,10.0,ESE,11.5,-,N/A,,Partly Cloudy,110,2013-03-08 08:58:00
2:58 AM,39.6,29.5,67,29.84,10.0,SE,4.6,-,N/A,,Mostly Cloudy,130,2013-03-08 09:58:00
3:08 AM,39.2,30.2,70,29.86,10.0,East,15.0,18.4,N/A,,Scattered Clouds,100,2013-03-08 10:08:00
3:58 AM,35.8,28.8,76,29.83,10.0,ESE,6.9,-,N/A,,Partly Cloudy,120,2013-03-08 10:58:00
4:58 AM,36.7,27.1,68,29.83,10.0,South,3.5,-,N/A,,Partly Cloudy,170,2013-03-08 11:58:00
5:25 AM,35.6,28.4,75,29.87,10.0,SSE,8.1,-,N/A,,Partly Cloudy,150,2013-03-08 12:25:00
5:35 AM,35.6,30.2,81,29.87,8.0,SSE,12.7,-,N/A,,Scattered Clouds,150,2013-03-08 12:35:00
5:50 AM,35.6,32.0,87,29.86,8.0,ESE,11.5,-,N/A,Rain,Rain,110,2013-03-08 12:50:00
5:58 AM,35.6,30.2,81,29.85,8.0,East,6.9,-,0.01,Rain,Light Rain,80,2013-03-08 12:58:00
6:12 AM,33.8,32.0,93,29.85,10.0,East,5.8,-,N/A,,Overcast,80,2013-03-08 13:12:00
6:58 AM,35.1,31.6,87,29.83,10.0,North,5.8,-,0.00,,Mostly Cloudy,350,2013-03-08 13:58:00
7:43 AM,35.6,32.0,87,29.84,10.0,North,5.8,-,N/A,,Overcast,360,2013-03-08 14:43:00
7:58 AM,36.0,32.0,86,29.83,10.0,North,2.3,-,N/A,,Mostly Cloudy,10,2013-03-08 14:58:00
8:18 AM,35.6,32.0,87,29.85,10.0,North,5.8,-,N/A,,Overcast,350,2013-03-08 15:18:00
8:58 AM,36.3,32.7,87,29.85,10.0,North,4.6,-,N/A,,Overcast,10,2013-03-08 15:58:00
9:58 AM,37.9,33.3,83,29.81,10.0,Calm,Calm,-,N/A,,Overcast,0,2013-03-08 16:58:00
10:27 AM,39.2,32.0,75,29.83,7.0,WNW,2.3,-,N/A,Rain,Light Rain Showers,300,2013-03-08 17:27:00
10:58 AM,39.9,33.4,78,29.81,10.0,North,3.5,-,0.00,,Overcast,10,2013-03-08 17:58:00
11:23 AM,41.0,37.4,87,29.81,10.0,NNW,8.1,-,N/A,,Overcast,340,2013-03-08 18:23:00
11:58 AM,41.2,37.2,86,29.78,10.0,NNW,8.1,-,N/A,,Mostly Cloudy,340,2013-03-08 18:58:00
12:50 PM,42.8,33.8,70,29.78,10.0,North,9.2,-,N/A,,Mostly Cloudy,350,2013-03-08 19:50:00
12:58 PM,42.6,33.8,71,29.75,10.0,NNW,8.1,-,N/A,,Mostly Cloudy,340,2013-03-08 19:58:00
1:58 PM,41.9,34.0,73,29.72,10.0,NNW,10.4,-,N/A,,Mostly Cloudy,330,2013-03-08 20:58:00
2:58 PM,42.3,31.6,66,29.70,10.0,NNW,10.4,-,N/A,,Scattered Clouds,340,2013-03-08 21:58:00
3:58 PM,43.3,30.7,61,29.70,10.0,NW,13.8,-,N/A,,Partly Cloudy,320,2013-03-08 22:58:00
4:58 PM,44.1,29.3,56,29.68,10.0,NNW,11.5,-,N/A,,Mostly Cloudy,330,2013-03-08 23:58:00
5:13 PM,44.6,28.4,53,29.70,10.0,North,10.4,-,N/A,,Scattered Clouds,350,2013-03-09 00:13:00
5:43 PM,44.6,28.4,53,29.70,10.0,NNW,10.4,-,N/A,,Mostly Cloudy,330,2013-03-09 00:43:00
5:58 PM,43.3,29.3,58,29.68,10.0,NNW,10.4,-,N/A,,Overcast,330,2013-03-09 00:58:00
6:08 PM,42.8,30.2,61,29.70,10.0,NNW,8.1,-,N/A,,Scattered Clouds,340,2013-03-09 01:08:00
6:58 PM,41.0,29.3,63,29.68,10.0,NW,5.8,-,N/A,,Clear,320,2013-03-09 01:58:00
7:23 PM,41.0,28.4,61,29.70,10.0,NW,8.1,-,N/A,,Mostly Cloudy,320,2013-03-09 02:23:00
7:53 PM,39.2,30.2,70,29.71,10.0,Calm,Calm,-,N/A,,Scattered Clouds,0,2013-03-09 02:53:00
7:58 PM,39.4,29.3,67,29.70,10.0,Calm,Calm,-,N/A,,Scattered Clouds,0,2013-03-09 02:58:00
8:53 PM,41.0,30.2,65,29.71,10.0,East,10.4,-,N/A,,Mostly Cloudy,90,2013-03-09 03:53:00
8:58 PM,40.8,29.7,64,29.69,10.0,East,9.2,-,N/A,,Mostly Cloudy,80,2013-03-09 03:58:00
9:08 PM,41.0,30.2,65,29.72,10.0,East,8.1,-,N/A,,Scattered Clouds,80,2013-03-09 04:08:00
9:18 PM,39.2,30.2,70,29.72,10.0,ENE,3.5,-,N/A,,Mostly Cloudy,60,2013-03-09 04:18:00
9:38 PM,39.2,30.2,70,29.72,10.0,West,3.5,-,N/A,,Overcast,270,2013-03-09 04:38:00
9:43 PM,39.2,30.2,70,29.72,10.0,WNW,4.6,-,N/A,,Overcast,290,2013-03-09 04:43:00
9:58 PM,37.9,29.5,72,29.71,10.0,WSW,2.3,-,N/A,,Overcast,250,2013-03-09 04:58:00
10:58 PM,37.9,29.3,71,29.70,10.0,West,6.9,-,N/A,,Mostly Cloudy,270,2013-03-09 05:58:00
11:58 PM,37.6,28.9,71,29.69,10.0,WNW,6.9,-,N/A,,Mostly Cloudy,300,2013-03-09 06:58:00